Regional Weather Roundup
Issued by NWS

Home | Current Version | Previous Version | Graphics & Text | Print | Product List | Glossary On
Versions: 1 2 3 4 5 6 7 8 9 10 11 12 13 14 15 16 17 18 19 20 21 22 23 24 25 26 27 28 29 30 31 32 33 34 35 36 37 38 39 40 41 42 43 44 45 46 47 48 49 50
000
ASUS43 KOAX 110002
RWRNE

WEATHER ROUNDUP FOR NEBRASKA
NATIONAL WEATHER SERVICE OMAHA NE
600 PM CST SUN DEC 10 2017

NOTES: SATELLITE DATA IS BEING USED TO AUGMENT CLOUD COVER ABOVE
       12000 FEET.
       "FAIR" INDICATES FEW OR NO CLOUDS BELOW 12,000 FEET WITH NO
       SIGNIFICANT WEATHER AND/OR OBSTRUCTIONS TO VISIBILITY.


NEZ001>004-019>022-054>056-110100-
NEBRASKA PANHANDLE

CITY           SKY/WX    TMP DP  RH WIND       PRES   REMARKS
SCOTTSBLUFF    CLEAR     48   6  18 W10       30.26S
6HR MIN TEMP:  47; 6HR MAX TEMP:  61;

ALLIANCE       CLEAR     38   5  25 W12       30.22S WCI  30
6HR MIN TEMP:  37; 6HR MAX TEMP:  61;

CHADRON        CLEAR     47   9  21 W10       30.21R
6HR MIN TEMP:  47; 6HR MAX TEMP:  61;

GORDON         FAIR      47  15  28 W9        30.16S
6HR MIN TEMP:  47; 6HR MAX TEMP:  56;

KIMBALL        CLEAR     42   3  19 NW12      30.29F
SIDNEY         CLEAR     44   2  17 W15       30.27F
6HR MIN TEMP:  40; 6HR MAX TEMP:  61;

$$

NEZ057>060-069>072-079>082-110100-
SOUTHWEST NEBRASKA

CITY           SKY/WX    TMP DP  RH WIND       PRES   REMARKS
NORTH PLATTE   CLEAR     44  14  29 SW9       30.19S
6HR MIN TEMP:  41; 6HR MAX TEMP:  65;

IMPERIAL       CLEAR     51   3  14 W8        30.24S
6HR MIN TEMP:  51; 6HR MAX TEMP:  64;

LEXINGTON      CLEAR     45  12  26 W12       30.17F
MCCOOK         CLEAR     54   9  16 SW7       30.22R
6HR MIN TEMP:  53; 6HR MAX TEMP:  65;

OGALLALA       CLEAR     45   5  19 W8        30.22S
$$

NEZ005>010-023>029-035>040-094-110100-
NORTH CENTRAL NEBRASKA

CITY           SKY/WX    TMP DP  RH WIND       PRES   REMARKS
VALENTINE      CLEAR     46  17  31 W8        30.13S
6HR MIN TEMP:  46; 6HR MAX TEMP:  62;

AINSWORTH      CLEAR     46  16  29 W8        30.12F
BROKEN BOW     CLEAR     50  12  21 W8        30.15R
6HR MIN TEMP:  46; 6HR MAX TEMP:  64;

O`NEILL        CLOUDY    43  20  39 W5        30.10S
ORD            CLEAR     46  13  26 W7        30.12R
6HR MIN TEMP:  46; 6HR MAX TEMP:  64;

THEDFORD       CLEAR     47  12  24 W6        30.17S
$$

NEZ041-046>049-061>064-073>077-083>087-110100-
SOUTH CENTRAL NEBRASKA

CITY           SKY/WX    TMP DP  RH WIND       PRES   REMARKS
GRAND ISLAND   CLEAR     46  15  28 W9        30.13S
6HR MIN TEMP:  45; 6HR MAX TEMP:  63;

AURORA         CLEAR     48  13  25 W3        30.12S
HASTINGS       CLEAR     49  14  24 W10       30.14S
6HR MIN TEMP:  49; 6HR MAX TEMP:  65;

HEBRON         CLEAR     49  14  25 W5        30.14S
HOLDREGE       CLEAR     47  16  28 W9        30.17S
KEARNEY        CLEAR     53  14  21 W6        30.16S
$$

NEZ011>018-030>034-042>045-110100-
NORTHEAST NEBRASKA

CITY           SKY/WX    TMP DP  RH WIND       PRES   REMARKS
NORFOLK        CLEAR     41  18  39 W3        30.09S
6HR MIN TEMP:  39; 6HR MAX TEMP:  56;

ALBION         CLEAR     47  17  30 NW3       30.11S
BLAIR          CLEAR     46  26  44 NW3       30.10S
COLUMBUS       CLEAR     40  17  39 NW7       30.12R
FREMONT        CLEAR     43  21  40 CALM      30.11S
TEKAMAH        CLEAR     41  22  46 NW3       30.11R
6HR MIN TEMP:  40; 6HR MAX TEMP:  53;

WAYNE          CLEAR     31  17  54 CALM      30.09F
$$

NEZ050>053-065>068-078-088>093-110100-
SOUTHEAST NEBRASKA

CITY           SKY/WX    TMP DP  RH WIND       PRES   REMARKS
LINCOLN        CLEAR     44  20  38 CALM      30.13S
6HR MIN TEMP:  41; 6HR MAX TEMP:  59;

OMAHA EPPLEY   PTCLDY    42  23  46 CALM      30.11R
6HR MIN TEMP:  42; 6HR MAX TEMP:  54;

BEATRICE       CLEAR     41  18  39 CALM      30.13R
FALLS CITY     CLEAR     47  21  35 NW3       30.12S
6HR MIN TEMP:  47; 6HR MAX TEMP:  57;

NEBRASKA CITY  CLEAR     46  23  39 W7        30.12S
PLATTSMOUTH    CLEAR     46  23  40 W5        30.11S
$$

NEZ044-045-051>053-067-110100-
OMAHA AREA

CITY           SKY/WX    TMP DP  RH WIND       PRES   REMARKS
OMAHA EPPLEY   PTCLDY    42  23  46 CALM      30.11R
6HR MIN TEMP:  42; 6HR MAX TEMP:  54;

BLAIR          CLEAR     46  26  44 NW3       30.10S
FREMONT        CLEAR     43  21  40 CALM      30.11S
MILLARD        CLEAR     43  27  53 CALM      30.11S
OFFUTT AFB     CLEAR     34  22  61 CALM      30.10S
PLATTSMOUTH    CLEAR     46  23  40 W5        30.11S
WAHOO          FAIR      45  19  34 SW5       30.11S
$$




USA.gov is the U.S. government's official web portal to all federal, state and local government web resources and services.